Temperature
20 20 19 18 18 16 15 18 17 18 19 17 14 12 10 8 9 10 11 11 10 10 10 9 9 10 10 10 11 11 11 11 11 11 11 12 12 13 13 13 12 12 11 11
19 19 19 19 19 17 18 18 18 18 18 15 12 10 9 8 8 9 11 10 10 10 9 8 9 9 9 10 10 10 10 10 11 11 11 11 11 11 11 11 10 10 10 11
18 18 18 16 16 17 17 16 16 16 16 14 12 11 10 9 9 10 10 10 10 9 8 8 8 9 9 9 10 10 10 10 10 10 11 10 11 11 10 10 10 11 11 10
18 17 14 16 16 15 15 16 15 15 14 13 11 10 10 9 9 10 10 10 9 9 8 8 8 9 9 9 10 10 10 10 10 10 10 10 10 10 10 10 10 10 10 11
16 16 16 17 16 17 16 16 16 16 14 13 13 12 12 10 10 10 9 8 8 9 8 8 9 9 9 9 9 9 9 9 10 9 9 9 9 10 10 10 10 10 10 10
17 16 15 17 17 16 16 16 17 16 15 14 13 15 14 11 10 9 9 8 8 8 8 8 8 9 9 9 9 9 9 8 9 9 9 9 9 9 9 10 10 10 10 10
17 17 18 18 17 16 16 14 16 15 15 14 14 14 12 11 10 9 9 8 8 8 8 8 8 8 8 8 8 8 8 8 8 8 8 9 9 9 9 10 10 10 10 10
19 16 15 17 16 16 16 15 15 15 15 14 13 12 11 11 10 10 9 9 8 8 8 8 8 8 9 8 8 8 8 8 8 8 8 8 9 9 9 9 8 9 9 10
18 19 17 17 17 16 15 15 15 14 14 13 13 12 12 11 10 10 9 9 8 8 8 8 8 8 8 8 8 7 7 7 7 7 8 8 8 8 9 8 8 8 9 9
18 18 17 16 16 15 15 15 14 14 13 13 13 12 12 11 10 9 9 9 8 8 8 8 8 7 7 7 7 7 7 7 7 7 7 7 7 7 7 7 7 7 7 7
17 18 17 16 16 15 14 14 14 14 14 13 13 12 12 11 10 9 9 9 9 8 8 8 8 8 7 7 7 7 7 7 7 7 7 7 7 7 7 7 7 7 6 6
18 19 18 18 17 15 15 14 14 14 13 13 13 13 12 11 10 10 9 9 8 8 8 8 8 7 7 7 7 8 8 7 7 7 7 7 7 7 7 7 7 7 7 7
18 18 18 18 17 16 15 15 14 14 14 13 13 13 12 11 11 10 10 9 9 9 9 8 8 8 8 8 8 8 8 8 8 8 8 8 7 8 8 8 8 8 7 7
17 17 17 17 17 16 16 15 15 14 14 14 13 13 12 12 11 10 10 10 10 9 9 9 9 9 8 8 8 8 8 9 9 10 9 9 9 9 9 9 8 8 8 7
18 17 17 17 17 17 16 16 15 15 14 14 14 13 13 12 12 11 11 11 10 10 10 10 9 9 9 9 9 9 9 9 9 9 9 8 9 9 9 8 8 8 8 8
17 17 16 17 17 17 16 16 15 15 15 14 14 13 13 13 12 12 11 11 11 10 10 10 10 10 9 9 9 9 9 9 9 9 9 9 9 9 8 8 8 8 7 7
17 17 16 16 17 17 16 16 16 15 15 15 14 14 13 13 13 12 12 12 11 11 11 10 10 10 10 9 9 10 9 9 8 9 9 9 8 8 8 8 7 7 7 6
17 17 16 16 16 17 17 16 16 16 15 15 15 14 14 13 13 13 12 12 12 11 11 11 10 10 10 10 9 10 10 9 9 9 9 9 8 8 8 7 7 7 7 6
17 17 17 17 17 17 17 16 16 16 15 15 15 14 14 14 13 13 13 12 12 12 11 11 11 10 10 10 9 9 10 10 9 9 9 8 8 8 8 7 7 7 7 6
16 16 16 16 17 18 17 16 16 15 15 15 15 14 14 14 13 13 13 13 13 12 12 12 11 10 10 10 9 10 10 10 10 9 9 9 8 8 8 7 7 6 6 6
15 15 16 16 17 17 17 17 16 15 14 14 14 14 14 14 13 13 13 13 13 12 12 12 11 10 10 10 9 9 10 10 10 9 9 9 8 8 8 7 7 7 6 6
14 14 14 15 16 16 16 16 16 15 14 14 14 14 14 14 13 13 13 13 14 13 12 12 11 11 11 10 10 10 10 10 10 10 9 9 8 7 6 6 7 7 6 5
13 13 13 13 14 14 14 14 14 14 14 14 14 14 14 14 14 14 14 13 13 13 13 12 12 11 11 10 11 10 10 10 10 10 9 8 7 7 7 7 7 6 6 5
12 12 13 12 12 12 13 13 13 13 13 14 14 14 14 14 14 14 14 14 14 13 13 12 12 11 11 10 10 10 10 10 10 9 9 8 8 8 8 8 7 6 5 4
11 11 11 12 12 12 12 11 12 14 13 13 13 13 13 13 14 14 14 14 13 13 13 12 12 11 11 11 11 11 10 10 9 9 8 8 8 8 8 7 7 6 5 4
11 11 11 11 12 12 12 11 12 14 14 13 13 13 12 12 12 13 14 14 13 13 13 12 12 11 11 11 11 10 10 9 9 8 7 7 7 8 7 6 6 5 4 4
10 10 10 10 10 10 10 11 10 12 13 13 13 12 12 12 12 12 13 13 12 12 12 13 12 11 11 11 10 10 9 9 8 8 7 8 8 7 6 5 5 4 4 4
Wind_Speed
16 14 16 17 19 17 23 14 12 17 13 2 11 9 5 4 3 4 4 3 3 4 3 3 4 3 4 5 3 3 2 2 2 2 5 5 5 5 5 5 5 5 5 6
14 12 13 17 16 14 16 10 11 14 7 8 9 7 6 5 5 6 5 4 4 5 4 1 3 3 3 3 5 4 1 2 3 2 3 5 4 4 4 5 6 6 8 8
9 7 10 9 6 11 11 7 8 10 2 10 11 9 8 7 7 6 5 3 2 4 5 3 2 1 2 3 4 4 4 3 3 2 1 2 2 2 3 3 4 5 8 7
8 11 9 2 2 6 8 6 4 2 3 8 9 8 8 8 8 6 4 2 1 1 1 3 3 3 4 5 1 2 3 4 4 5 6 5 3 3 2 2 3 4 7 8
6 9 11 3 3 4 5 6 5 5 7 8 8 8 8 9 8 5 3 1 2 3 1 4 4 4 3 4 4 3 2 1 1 1 4 5 5 4 4 4 5 4 5 7
11 10 9 3 2 1 4 5 4 6 6 7 7 8 6 10 8 6 4 2 3 3 2 3 3 1 2 4 2 1 1 1 1 1 3 4 2 1 1 2 4 5 3 4
9 8 5 4 3 3 5 2 2 3 6 8 7 3 5 6 6 4 3 1 1 2 4 3 3 2 1 2 3 4 5 2 2 2 1 4 6 6 4 3 2 5 5 3
4 5 2 3 3 5 4 4 4 4 6 6 3 2 3 4 4 4 4 3 3 4 5 4 3 3 3 3 5 5 5 4 3 3 5 4 1 3 3 3 3 4 6 7
5 6 3 4 7 5 6 6 4 5 6 6 6 4 4 4 4 4 4 4 4 6 7 6 6 6 4 4 4 5 6 6 6 5 6 7 7 5 4 5 6 6 6 6
7 7 6 8 9 8 7 6 7 8 8 7 7 6 5 3 4 4 4 4 5 7 6 5 6 7 5 5 5 6 6 6 5 7 8 7 8 7 5 6 8 7 8 8
13 13 9 10 12 11 10 9 10 9 9 8 7 6 5 4 4 4 4 4 4 4 4 5 4 7 6 6 7 7 7 7 6 6 6 5 8 7 5 5 6 4 3 3
13 10 7 8 10 13 14 13 13 12 11 10 8 7 6 6 6 6 6 6 5 4 5 6 6 7 8 6 3 2 2 6 6 6 6 5 6 7 3 3 2 6 3 1
16 15 11 10 7 13 16 15 14 13 14 12 10 9 8 7 8 7 7 7 7 7 6 7 7 7 6 5 3 1 2 4 6 5 5 6 7 7 6 4 2 2 5 5
17 16 13 13 11 13 16 16 16 15 15 14 13 11 10 9 10 10 10 10 9 8 8 7 7 6 6 5 3 3 2 2 3 4 5 5 5 4 3 4 4 4 5 7
17 18 18 16 15 14 16 16 17 17 17 16 14 14 13 12 12 12 12 12 11 10 9 8 8 7 7 6 4 5 5 4 3 4 3 2 3 3 2 1 2 4 4 3
12 14 18 18 16 16 18 18 18 18 18 18 16 15 15 15 13 13 13 13 13 12 11 10 10 9 8 7 5 5 4 2 3 4 5 4 3 1 0 1 3 4 5 7
13 13 16 19 19 19 20 20 19 19 19 20 19 18 17 16 15 14 14 14 15 14 13 12 11 10 11 11 9 7 7 7 5 5 5 4 2 1 2 3 3 4 4 4
10 14 17 20 20 20 21 21 20 19 19 20 19 18 17 17 16 16 16 16 16 15 15 15 13 11 12 13 12 10 9 8 8 7 6 5 4 4 4 4 5 5 5 3
9 12 17 21 22 21 21 21 21 20 20 20 21 20 18 18 17 17 16 16 17 17 17 17 14 13 14 14 13 13 12 11 10 9 8 6 6 7 7 7 7 7 6 5
12 13 15 20 24 23 21 21 20 19 20 21 21 20 18 18 17 17 17 16 16 15 16 17 16 16 16 15 15 15 14 13 12 11 10 10 10 10 9 7 7 9 8 7
15 15 15 15 20 22 21 21 21 19 19 21 20 20 19 19 17 16 16 15 15 16 15 14 15 16 16 16 16 16 16 14 13 13 12 11 11 11 9 7 10 10 8 8
13 14 13 11 13 16 17 18 20 20 19 19 19 21 20 19 17 16 16 15 14 14 13 13 15 17 16 16 16 16 16 16 14 13 12 10 7 4 7 12 13 10 9 8
11 11 11 10 9 10 12 15 16 17 18 19 19 18 18 18 17 16 15 14 14 12 13 13 15 19 19 16 16 15 15 16 14 12 11 7 5 9 14 16 11 9 9 8
15 13 11 10 9 8 9 11 13 13 15 15 16 16 15 16 15 16 15 14 15 15 14 13 15 20 19 17 17 16 15 14 12 12 12 11 11 14 15 11 9 9 8 7
14 15 16 15 12 8 6 8 9 9 9 12 14 14 13 14 14 14 15 15 15 16 14 14 15 18 17 17 16 15 13 11 11 11 11 9 10 15 11 8 8 6 7 8
17 16 14 13 13 12 9 8 10 11 12 10 8 8 7 9 11 12 11 13 15 15 15 15 15 15 16 17 16 13 12 12 11 10 9 10 13 11 8 8 8 6 7 8
15 14 12 11 11 11 12 11 9 9 11 14 10 6 6 7 8 10 12 13 13 13 14 15 15 15 16 16 14 15 14 10 9 8 9 11 10 7 7 7 7 7 6 5
Wind_Direction
289 279 267 263 265 269 279 277 274 281 291 193 168 170 146 97 78 307 297 300 306 296 296 325 330 326 339 333 330 326 337 7 27 91 125 105 82 83 94 93 84 68 51 43
286 283 289 288 289 280 271 284 286 284 289 108 133 148 147 153 193 227 243 260 271 277 270 258 307 329 23 15 24 11 65 64 14 3 136 116 104 108 119 113 101 79 56 46
299 321 294 283 293 299 301 324 296 290 294 145 151 165 165 180 211 216 238 229 281 307 286 253 225 229 104 88 53 17 10 32 40 356 302 140 112 93 105 111 90 69 60 50
289 298 294 315 262 263 275 264 250 260 171 164 177 185 183 195 216 215 206 185 0 349 266 234 215 201 159 156 113 346 12 30 20 22 28 35 66 63 56 74 51 56 68 58
289 298 301 268 226 252 284 284 204 207 186 193 185 192 209 204 207 204 196 185 329 13 32 197 209 211 191 178 211 228 216 167 53 61 102 75 41 20 6 22 44 40 60 69
283 294 302 25 126 208 290 274 154 191 194 188 195 233 180 170 186 192 188 201 279 7 71 150 166 193 204 206 224 287 317 133 112 65 143 151 157 271 335 1 28 3 36 75
284 287 295 58 144 201 261 35 95 211 199 195 223 15 84 138 166 179 187 185 262 84 104 103 76 2 340 10 35 44 29 29 53 2 217 203 208 224 229 218 30 4 342 9
277 282 287 120 206 241 330 349 318 243 198 194 199 134 147 155 169 190 200 187 186 138 140 140 139 118 103 71 49 61 70 65 66 10 351 32 59 205 194 136 83 24 355 354
288 304 327 238 250 275 292 291 261 199 178 177 176 179 174 179 188 194 207 204 190 166 165 167 171 164 133 96 88 82 71 61 59 52 32 35 45 58 82 93 73 33 9 355
267 262 253 241 234 232 242 243 196 181 173 181 181 174 175 184 185 187 196 199 180 168 177 148 159 165 154 140 148 135 117 102 89 85 69 51 50 29 41 62 73 59 41 19
268 269 263 243 229 217 207 198 189 191 184 184 182 175 177 169 167 162 166 174 178 174 163 122 128 153 159 153 150 142 147 154 141 123 127 106 80 68 59 65 71 72 76 30
266 278 255 264 217 208 202 199 196 197 198 193 194 184 177 169 164 162 158 159 165 168 166 157 147 138 141 149 157 110 165 137 145 163 163 140 123 129 144 111 182 239 226 324
264 265 255 252 233 205 205 203 200 196 194 195 196 187 177 170 168 166 161 162 164 162 157 164 171 166 165 177 185 173 49 115 152 161 135 139 149 155 156 132 53 201 209 233
251 252 246 235 225 211 207 205 199 201 199 198 194 191 185 177 174 183 184 179 175 172 171 179 192 192 187 199 225 235 182 181 194 133 125 123 123 137 145 140 153 147 189 203
251 239 237 237 224 211 204 205 202 206 206 202 197 196 197 194 191 193 194 192 191 195 196 201 210 214 211 222 244 230 214 191 180 140 118 118 132 131 101 55 352 336 331 256
262 245 232 232 222 207 203 206 208 209 209 207 202 201 204 206 204 202 200 202 204 209 212 217 225 227 219 216 209 199 187 150 214 177 166 171 152 134 36 333 320 334 342 347
256 240 224 219 221 212 207 209 210 211 210 209 206 204 208 210 212 213 212 211 214 220 219 220 228 227 214 207 207 204 187 174 215 221 195 190 203 246 289 296 312 327 329 69
260 252 237 225 219 215 213 213 212 212 212 210 207 208 210 214 218 221 222 221 220 223 226 227 226 221 215 210 210 218 212 203 200 225 217 214 228 252 269 278 291 294 304 132
288 274 257 240 231 224 217 214 213 210 210 210 209 212 214 219 223 225 225 224 224 226 227 226 207 206 215 213 207 221 224 223 223 227 235 230 231 249 257 259 266 272 284 288
319 308 282 251 234 227 221 215 211 209 208 210 215 218 220 223 224 224 223 223 225 229 230 223 204 207 214 204 196 225 230 232 238 238 234 235 244 251 253 247 257 267 270 271
344 329 301 260 236 226 222 216 208 205 206 207 211 218 221 224 224 223 221 225 224 223 229 223 207 206 208 205 195 222 236 236 234 240 243 240 247 258 267 278 271 264 268 266
346 342 325 292 252 236 227 222 212 205 202 205 208 215 220 224 225 225 226 232 233 202 207 217 209 207 208 193 210 218 228 237 239 239 243 248 254 278 289 272 262 261 262 262
322 329 339 331 294 256 236 228 219 214 210 206 206 210 216 224 228 227 222 222 228 206 208 219 198 180 193 205 219 225 231 234 235 237 238 222 235 253 259 260 260 263 262 263
297 299 309 319 318 283 245 226 215 215 227 224 221 220 220 228 234 230 226 209 195 194 210 216 177 172 186 209 221 229 232 230 228 232 226 226 244 260 261 260 263 261 255 248
281 285 284 282 282 287 285 257 217 186 213 226 225 224 228 234 238 232 218 211 187 188 205 202 176 179 197 214 221 225 225 219 216 223 244 256 267 270 268 269 267 263 266 263
274 268 264 258 262 270 273 272 257 224 213 224 218 208 220 229 232 238 228 212 203 193 207 201 188 192 208 215 220 216 210 215 210 211 229 251 263 265 269 266 259 240 247 263
270 265 268 272 263 252 251 257 277 280 252 239 240 256 267 259 244 235 227 217 213 208 212 209 187 191 208 210 205 204 205 205 208 207 231 250 255 254 252 250 250 253 256 266
Height
1492 1493 1496 1495 1495 1499 1505 1485 1493 1490 1486 1493 1502 1512 1515 1515 1513 1516 1517 1517 1517 1516 1515 1513 1513 1511 1511 1510 1510 1509 1509 1510 1510 1511 1509 1507 1507 1506 1506 1505 1505 1505 1505 1504
1497 1492 1491 1489 1486 1490 1487 1482 1486 1485 1486 1497 1507 1513 1514 1514 1515 1515 1516 1516 1516 1515 1513 1511 1510 1510 1509 1508 1508 1508 1509 1509 1509 1510 1510 1509 1508 1509 1509 1509 1509 1508 1507 1506
1496 1493 1496 1500 1496 1492 1489 1488 1492 1491 1494 1500 1508 1511 1511 1512 1513 1513 1514 1514 1513 1512 1510 1509 1508 1508 1508 1507 1508 1508 1509 1510 1510 1510 1511 1511 1511 1511 1511 1511 1511 1510 1509 1509
1497 1498 1509 1501 1496 1496 1495 1491 1492 1495 1498 1503 1506 1508 1509 1509 1511 1512 1512 1512 1511 1510 1507 1506 1506 1507 1508 1508 1509 1509 1509 1509 1508 1508 1509 1509 1510 1511 1512 1513 1513 1512 1512 1512
1501 1498 1496 1490 1492 1493 1491 1487 1489 1493 1498 1501 1502 1506 1506 1507 1509 1511 1510 1510 1510 1507 1506 1504 1505 1507 1507 1508 1509 1509 1508 1508 1508 1508 1508 1508 1508 1509 1510 1511 1513 1513 1514 1515
1494 1499 1502 1491 1491 1493 1494 1488 1488 1492 1495 1498 1501 1498 1497 1502 1506 1507 1507 1507 1507 1506 1504 1503 1504 1505 1506 1507 1508 1509 1508 1508 1508 1508 1507 1507 1507 1508 1510 1511 1512 1513 1515 1516
1493 1493 1486 1488 1492 1495 1494 1496 1491 1492 1494 1497 1498 1498 1501 1502 1504 1505 1506 1505 1504 1504 1502 1503 1503 1505 1506 1507 1508 1507 1506 1506 1507 1508 1508 1508 1508 1509 1509 1510 1510 1512 1515 1516
1484 1491 1499 1491 1494 1495 1492 1492 1492 1492 1493 1496 1498 1500 1501 1502 1503 1504 1504 1504 1503 1503 1502 1503 1504 1504 1505 1506 1506 1506 1505 1506 1507 1508 1509 1509 1508 1508 1509 1509 1509 1511 1512 1514
1485 1484 1487 1488 1489 1490 1491 1491 1491 1492 1493 1495 1498 1500 1501 1502 1503 1503 1503 1503 1502 1502 1502 1503 1503 1504 1505 1506 1505 1505 1506 1506 1507 1507 1509 1508 1508 1508 1509 1509 1509 1510 1512 1514
1484 1482 1483 1485 1486 1487 1489 1490 1490 1491 1493 1495 1497 1499 1500 1501 1501 1502 1502 1502 1502 1503 1503 1504 1504 1504 1505 1505 1505 1505 1505 1506 1507 1507 1508 1509 1508 1508 1509 1510 1510 1512 1513 1514
1479 1478 1479 1480 1481 1483 1485 1486 1488 1490 1492 1494 1495 1497 1498 1499 1500 1501 1502 1502 1503 1504 1504 1504 1504 1505 1506 1507 1508 1508 1508 1508 1507 1508 1508 1508 1508 1509 1510 1511 1512 1513 1514 1514
1471 1470 1472 1472 1474 1478 1481 1483 1485 1487 1490 1492 1494 1495 1497 1498 1499 1500 1501 1502 1503 1504 1505 1505 1506 1507 1508 1509 1510 1510 1510 1510 1510 1510 1510 1510 1510 1511 1513 1513 1513 1514 1513 1513
1468 1468 1468 1469 1471 1474 1477 1479 1482 1484 1486 1489 1492 1493 1495 1496 1498 1499 1501 1503 1504 1505 1506 1506 1507 1509 1510 1510 1510 1511 1512 1511 1511 1512 1512 1512 1512 1513 1513 1513 1513 1514 1514 1513
1462 1463 1464 1465 1467 1469 1472 1475 1478 1481 1484 1486 1488 1491 1493 1494 1496 1498 1500 1502 1503 1505 1506 1507 1508 1509 1510 1510 1510 1511 1511 1511 1512 1512 1513 1513 1513 1513 1514 1514 1514 1513 1514 1513
1453 1455 1457 1458 1460 1463 1467 1470 1473 1476 1479 1482 1485 1487 1489 1491 1493 1495 1497 1499 1501 1503 1504 1506 1508 1508 1509 1510 1510 1510 1510 1511 1511 1512 1512 1512 1513 1513 1514 1514 1514 1514 1514 1512
1446 1447 1450 1452 1454 1456 1460 1463 1466 1470 1473 1476 1480 1483 1486 1488 1490 1492 1494 1496 1498 1499 1501 1503 1505 1506 1507 1508 1508 1509 1509 1509 1510 1511 1512 1512 1513 1513 1513 1512 1512 1512 1511 1510
1439 1440 1442 1444 1447 1450 1453 1456 1459 1463 1467 1470 1473 1477 1481 1483 1486 1488 1490 1492 1494 1496 1498 1499 1501 1502 1504 1505 1506 1507 1508 1508 1508 1510 1511 1511 1512 1512 1512 1511 1510 1509 1508 1505
1434 1434 1436 1437 1439 1443 1446 1449 1453 1456 1460 1463 1468 1471 1474 1476 1479 1482 1484 1487 1489 1491 1493 1495 1496 1498 1500 1501 1502 1504 1505 1506 1507 1508 1508 1509 1509 1509 1509 1509 1508 1507 1506 1504
1431 1429 1428 1430 1432 1435 1438 1441 1444 1448 1452 1457 1461 1464 1467 1470 1472 1475 1478 1480 1482 1484 1485 1488 1490 1491 1494 1496 1498 1500 1501 1503 1504 1505 1506 1506 1505 1505 1505 1505 1504 1503 1502 1501
1425 1423 1421 1420 1422 1426 1429 1433 1437 1441 1445 1449 1453 1457 1460 1463 1466 1468 1470 1472 1474 1476 1478 1480 1482 1484 1487 1490 1493 1495 1496 1497 1499 1500 1501 1501 1501 1501 1500 1499 1499 1498 1497 1497
1419 1416 1414 1413 1413 1416 1420 1424 1428 1432 1436 1440 1444 1448 1452 1455 1458 1460 1462 1464 1466 1468 1471 1473 1475 1477 1480 1484 1486 1488 1489 1490 1493 1494 1495 1495 1495 1495 1494 1493 1493 1492 1491 1491
1417 1415 1413 1410 1410 1410 1412 1416 1420 1423 1427 1431 1435 1439 1443 1446 1449 1452 1454 1456 1458 1460 1462 1465 1468 1470 1473 1476 1479 1481 1482 1484 1486 1487 1488 1488 1489 1488 1488 1487 1486 1485 1485 1485
1416 1414 1412 1410 1408 1406 1406 1408 1412 1416 1419 1422 1425 1429 1433 1437 1440 1442 1444 1447 1449 1452 1455 1458 1460 1462 1465 1468 1471 1473 1475 1476 1478 1480 1481 1481 1481 1482 1481 1480 1479 1479 1479 1479
1412 1410 1408 1407 1406 1404 1401 1402 1404 1407 1412 1415 1417 1420 1423 1427 1429 1432 1435 1438 1440 1443 1446 1450 1452 1454 1457 1460 1464 1466 1467 1469 1471 1473 1473 1473 1474 1474 1473 1472 1472 1472 1472 1472
1405 1403 1402 1402 1402 1400 1399 1398 1398 1399 1403 1406 1408 1410 1413 1416 1420 1423 1426 1429 1432 1434 1437 1440 1444 1447 1450 1453 1456 1458 1460 1462 1464 1466 1468 1468 1468 1466 1465 1465 1466 1466 1466 1466
1395 1394 1393 1392 1393 1394 1395 1395 1395 1394 1398 1401 1402 1402 1404 1407 1410 1413 1418 1422 1424 1426 1430 1433 1435 1439 1442 1446 1449 1451 1453 1456 1458 1458 1460 1462 1460 1460 1459 1459 1459 1459 1460 1460
1386 1385 1384 1382 1383 1385 1387 1388 1388 1388 1390 1392 1393 1394 1397 1400 1403 1406 1409 1414 1416 1419 1422 1425 1428 1431 1435 1439 1441 1444 1446 1448 1451 1453 1453 1454 1454 1454 1454 1454 1454 1454 1454 1454